Location: Az?znagar
(16.8373°N, 80.5091°E)
Time: 09:35:19
(UTC+00:00)

APEX - Visible Passes

Search period start: 29 June 2022 00:00
Search period end: 09 July 2022 00:00
Orbit: 327 x 1000 km, 69.9° (Epoch: 28 June)

Date Brightness Start Highest point End Pass type
(mag) Time Alt. Az. Time Alt. Az. Time Alt. Az.
29 Jun 7.1 14:57:34 10° WSW 15:01:43 18° WNW 15:05:36 10° NNW visible
30 Jun 5.0 13:46:37 10° SSW 13:53:01 64° WNW 13:58:46 10° N visible
01 Jul 6.9 14:19:42 10° WSW 14:24:31 23° WNW 14:28:56 10° NNW visible
02 Jul 5.7 23:39:29 10° NNE 23:41:27 18° ENE 23:43:26 10° ESE visible
03 Jul 6.7 13:41:55 10° SW 13:47:13 28° WNW 13:52:02 10° NNW visible
04 Jul 6.0 23:02:49 10° NE 23:04:00 12° ENE 23:05:11 10° E visible
05 Jul 2.1 23:32:34 10° NNW 23:35:13 80° WSW 23:37:58 10° SSE visible
06 Jul 7.9 13:39:13 10° W 13:41:13 12° WNW 13:43:09 10° NW visible
07 Jul 2.9 22:55:01 10° N 22:57:38 57° ENE 23:00:22 10° SSE visible
08 Jul 4.0 23:27:00 10° WNW 23:28:44 16° WSW 23:29:03 15° WSW visible
